Regional Weather Roundup
Issued by NWS Bismarck, ND

Home | Current Version | Previous Version | Text Only | Print | Product List | Glossary On
Versions: 1 2 3 4 5 6 7 8 9 10 11 12 13 14 15 16 17 18 19 20 21 22 23 24 25 26 27 28 29 30 31 32 33 34 35 36 37 38 39 40 41 42 43 44 45 46 47 48 49 50
000
ASUS43 KBIS 310959
RWRBIS

NWR BROADCAST TEXT
NATIONAL WEATHER SERVICE BISMARCK ND
500 AM CDT FRI OCT 31 2014

NOTE: "FAIR" INDICATES FEW OR NO CLOUDS BELOW 12,000 FEET WITH NO
SIGNIFICANT WEATHER AND/OR OBSTRUCTIONS TO VISIBILITY.


CITY           SKY/WX    TMP DP  RH WIND       PRES   REMARKS
WILLISTON      CLOUDY    30  23  75 SE13      30.41F WCI  20
MINOT          CLEAR     14  11  87 SE5       30.50F WCI   6
MINOT AFB      NOT AVBL
BISMARCK       PTCLDY    14  12  92 E6        30.56F WCI   5
DICKINSON      NOT AVBL
GARRISON         N/A     25  22  88 SE9       30.51F WCI  15
HETTINGER ARPT CLOUDY    27  24  89 SE15G23   30.45F WCI  15
JAMESTOWN      NOT AVBL
BEACH            N/A     30  30 100 SE22G32   30.36F WCI  17
CARRINGTON     FAIR      14  12  92 CALM      30.58F
HARVEY         FAIR      12  10  92 CALM      30.57S
HAZEN          FAIR      16  14  93 E5        30.53F WCI   9
MANDAN         FOG       18  16  93 SE6       30.54F VSB<1/4 WCI   9
$$

CITY           SKY/WX    TMP DP  RH WIND       PRES   REMARKS
GRAND FORKS    CLEAR     13  10  88 NW3       30.60S
GRAND FORKS AF NOT AVBL
DEVILS LAKE    PTCLDY    16   7  67 CALM      30.56S
FARGO          CLEAR     16  13  88 NW5       30.59S WCI   9
CANDO          FAIR      12  10  92 CALM      30.59S
CAVALIER       FAIR      16  14  93 W3        30.62R
GRAFTON        FAIR      19  16  86 NW6       30.61S WCI  11
GWINNER        SUNNY     19  16  86 N7        30.60R WCI  10
$$

CITY           SKY/WX    TMP DP  RH WIND       PRES   REMARKS
ABERDEEN       MOCLDY    15  11  83 N5        30.60S WCI   8
MOBRIDGE       MOCLDY    22  19  89 E8        30.54F WCI  12
BUFFALO          N/A     31  29  92 SE20      30.33F WCI  19
RAPID CITY     CLOUDY    31  30  96 S13       30.44F FOG
GLASGOW        MOCLDY    33  28  81 SE22G30   30.20F
SIDNEY         CLOUDY    34  27  75 SE22      30.38F
WOLF POINT     CLOUDY    36  29  75 SE14G23   30.29F
GLENDIVE       CLOUDY    34  28  80 SE14G21   30.34F
MILES CITY     CLEAR     34  30  85 SE21G26   30.25F
BAKER          CLOUDY    32  28  85 SE28G39   30.33F WCI  18
$$

CITY           SKY/WX    TMP DP  RH WIND       PRES   REMARKS
BILLINGS       MOCLDY    37  30  75 N5        30.07F
GREAT FALLS    PTCLDY    51  31  46 S18       29.91F
$$




USA.gov is the U.S. government's official web portal to all federal, state and local government web resources and services.